Tracking 25620 objects as of 18-May-2022
HD Live streaming from Space Station
objects crossing your sky now

COSMOS 2251 DEB

Track COSMOS 2251 DEB now!
10-day predictions


NORAD ID: 33842
Int'l Code: 1993-036CK
Perigee: 734.8 km
Apogee: 806.8 km
Inclination: 74.0 °
Period: 100.1 minutes
Semi major axis: 7141 km
RCS: 0.0581 m2 (small)
Launch date: June 16, 1993
Source: Commonwealth of Independent States (former USSR) (CIS)
Launch site: PLESETSK MISSILE AND SPACE COMPLEX (PKMTR)

Note: This is SATELLITE DEBRIS
aabbcc
Your satellite tracking list
Your tracking list is empty




NASA's NSSDC Master Catalog

Two Line Element Set (TLE):
1 33842U 93036CK  22138.17754308  .00000881  00000-0  29302-3 0  9998
2 33842  74.0342 111.5567 0050413 180.8084 179.2998 14.38439968695651
Source of the keplerian elements: AFSPC